Content
SEND FEEDBACK

Daily
Averages
Monthly
Summary
United States of America

ELIZABETH, NEW JERSEY


Home > North America > United States > New Jersey
Elevation: 1 foot     Latitude: 40 42N     Longitude: 074 10W

WEATHER
 
SELECT A DAY
Number of Records: 189,864;   Date Range: 1/1/95 - 9/16/14
 
SHARE

PRINT THIS DATA

[ ← Previous Day ]
WEATHER ALMANAC - FEBRUARY 25, 2013
[ Next Day → ]
[ °C ]   °F
Weather ElementAverageHighLow
Temperature39.6 °F45 °F (11:51 am)32 °F (2:51 am)
Dewpoint24.8 °F27 °F (7:51 pm)21.2 °F (1:51 am)
Humidity56.1 %73 % (6:51 am)44 % (1:51 pm)
Barometer30.14 in30.23 in (9:51 pm)30.02 in (1:51 am)
Wind Speed7.8 mph12.7 mph (9:51 am)
Wind Gust17.3 mph (12:51 pm)
Weather ElementAverage
Visibility10 mi
Wind DirectionWNW (304.8 °)

Weather ElementTotal
Precipitation---
Heating Degree Days26.5 (Base 65)
Averaged from 23 records on February 25, 2013
WEATHER CONDITIONS BREAKOUT
WIND DIRECTION BREAKOUT
WEATHER BY HOUR - FEBRUARY 25, 2013
[ °C ]   °F
Local TimeTemperatureDewpointHumidityBarometerVisibilityWind DirectionWind SpeedGust SpeedPrecipitationEventsConditions
1:51 AM33.8 °F21.2 °F60 %30.02 in10.0 miWNW (300°)9.2 mphClear
2:51 AM32.0 °F21.9 °F66 %30.03 in10.0 miWNW (300°)8.1 mphPartly Cloudy
3:51 AM32.0 °F21.9 °F66 %30.04 in10.0 miNW (310°)8.1 mphPartly Cloudy
4:51 AM32.0 °F23.0 °F69 %30.05 in10.0 miNW (310°)6.9 mphClear
5:51 AM32.0 °F23.0 °F69 %30.07 in10.0 miWNW (300°)6.9 mphClear
6:51 AM32.0 °F24.1 °F73 %30.09 in10.0 miWNW (300°)5.8 mphClear
7:51 AM35.1 °F25.0 °F67 %30.12 in10.0 miWest (260°)4.6 mphScattered Clouds
8:51 AM39.0 °F26.1 °F60 %30.13 in10.0 miNNW (340°)10.4 mphPartly Cloudy
9:51 AM42.1 °F26.1 °F53 %30.13 in10.0 miNorth (350°)12.7 mphScattered Clouds
10:51 AM42.8 °F24.8 °F49 %30.14 in10.0 miNorth (350°)10.4 mphMostly Cloudy
11:51 AM45.0 °F25.0 °F46 %30.14 in10.0 miNorth (360°)10.4 mphMostly Cloudy
12:51 PM44.1 °F24.1 °F45 %30.15 in10.0 miNNW (330°)6.9 mph17.3 mphMostly Cloudy
1:51 PM45.0 °F24.1 °F44 %30.14 in10.0 miNNW (330°)8.1 mphOvercast
2:51 PM44.1 °F24.1 °F45 %30.15 in10.0 miWNW (300°)9.2 mph16.1 mphOvercast
3:51 PM44.1 °F24.1 °F45 %30.16 in10.0 miNW (310°)10.4 mphOvercast
4:51 PM43.0 °F25.0 °F49 %30.16 in10.0 miNW (310°)10.4 mphMostly Cloudy
5:51 PM43.0 °F26.1 °F51 %30.18 in10.0 miNW (320°)9.2 mphMostly Cloudy
6:51 PM43.0 °F26.1 °F51 %30.20 in10.0 miNW (310°)9.2 mphMostly Cloudy
7:51 PM42.1 °F27.0 °F55 %30.22 in10.0 miWNW (300°)5.8 mphMostly Cloudy
8:51 PM42.1 °F27.0 °F55 %30.22 in10.0 miNorth (360°)4.6 mphMostly Cloudy
9:51 PM42.1 °F26.1 °F53 %30.23 in10.0 miNNW (330°)6.9 mphOvercast
10:51 PM41.0 °F27.0 °F57 %30.23 in10.0 miNNW (330°)5.8 mphMostly Cloudy
11:51 PM39.0 °F27.0 °F62 %30.22 in10.0 miCalmMostly Cloudy
Hourly data recorded from KEWR, located miles away from Elizabeth, New Jersey







STORIES FROM OUR PARTNERS